Flag Weather past 2 weeks in Trenton, New Jersey, U.S.A.

Now
44 °F

Clear.


Feels Like: 43 °F
Forecast: 34 / 45 °F
Wind: 3 mph from Northwest

Location: Mercer County Airport

Current Time: Nov 26, 2014 at 2:06:16 AM

Latest Report: Nov 26, 2014 at 12:53 AM


Visibility: 10 mi

Pressure: 30.14 "Hg

Humidity: 60%

Dew point: 31 °F

Location of TrentonLocation

Historic Weather in Trenton — Graph

°F

Trenton temperature yesterday

Maximum temperature yesterday: 66 °F (at 12:53 AM)
Minimum temperature yesterday: 43 °F (at 10:53 PM)
Average temperature yesterday: 53 °F

Past Weeks' High & Low Weather Summary

 TemperatureHumidityPressure
High71 °F (Nov 24, 12:53 PM)100% (Nov 17, 2:04 PM)30.50 "Hg (Nov 17, 2:04 PM)
Low20 °F (Nov 19, 6:53 AM)28% (Nov 23, 1:53 PM)29.52 "Hg (Nov 17, 3:53 PM)
Average41 °F59%30.05 "Hg
* Reported Nov 11 12:53 AM — Nov 26 12:53 AM, Trenton, Weather by CustomWeather, © 2014

Note: Actual official high and low records may vary slightly from our data, if they occured in-between our weather recording intervals... More about our weather records

Advertising

Trenton weather history for previous 24 hours

 ConditionsComfort  
Time TempWeatherWind HumidityBarometerVisibility
12:53 AM
Nov 26
44 °FClear.3 mph60%30.14 "Hg10 mi
11:53 PM
Nov 25
44 °FPassing clouds.No wind63%30.14 "Hg10 mi
10:53 PM43 °FClear.No wind62%30.15 "Hg10 mi
9:53 PM45 °FClear.No wind58%30.13 "Hg10 mi
8:53 PM44 °FClear.3 mph58%30.10 "Hg10 mi
7:53 PM47 °FClear.No wind50%30.09 "Hg10 mi
6:53 PM48 °FClear.3 mph48%30.06 "Hg10 mi
5:53 PM49 °FClear.5 mph44%30.03 "Hg10 mi
4:53 PM50 °FClear.6 mph44%30.01 "Hg10 mi
3:53 PM52 °FSunny.7 mph40%30.00 "Hg10 mi
2:53 PM53 °FSunny.7 mph38%29.98 "Hg10 mi
1:53 PM53 °FSunny.9 mph38%29.97 "Hg10 mi
12:53 PM53 °FBroken clouds.8 mph37%30.00 "Hg10 mi
11:53 AM53 °FPartly sunny.12 mph38%30.00 "Hg10 mi
10:53 AM53 °FPartly sunny.10 mph39%30.01 "Hg10 mi
9:53 AM53 °FSunny.10 mph41%30.00 "Hg10 mi
8:53 AM53 °FSunny.14 mph43%29.97 "Hg10 mi
7:53 AM56 °FSunny.12 mph46%29.94 "Hg10 mi
6:53 AM58 °FPassing clouds.6 mph46%29.90 "Hg10 mi
5:53 AM59 °FClear.7 mph48%29.87 "Hg10 mi
4:53 AM60 °FClear.3 mph65%29.84 "Hg10 mi
3:53 AM62 °FClear.7 mph67%29.81 "Hg10 mi
2:53 AM64 °FClear.8 mph70%29.78 "Hg10 mi
Weather by CustomWeather, © 2014

See weather overviewHow to use our weather pages